ZL1KPB-13 Weather Reports


time (UTC)temp
C
wind
direction
speed
KPH
gust
KPH
rain 1hr
cm
rain 24hr
cm
rain mn
cm
humidity
%
barometer
mb
20260509234051 15 34 9.7 22.5 1.83 3.20 3.20 81 1006.5
20260509233110 15 4 9.7 14.5 0.56 1.96 1.96 84 1006.5
20260509232044 14 18 12.9 24.1 0.36 1.50 1.50 82 1006.5
20260509231040 15 23 12.9 20.9 0.30 1.37 1.37 89 1006.6
20260509230036 13 2 9.7 17.7 0.30 1.37 1.37 89 1006.7
20260509225033 13 26 11.3 22.5 0.30 1.37 1.37 86 1006.7
20260509224030 13 16 11.3 22.5 0.38 1.37 1.37 84 1006.7
20260509223026 14 28 11.3 27.4 0.86 1.37 1.37 81 1006.7
20260509222023 15 358 11.3 25.7 0.64 1.14 1.14 80 1006.8
20260509221019 15 324 8.0 16.1 0.56 1.09 1.09 79 1006.7
20260509220116 15 29 8.0 17.7 0.56 1.09 1.09 80 1006.7
20260509215133 15 290 9.7 16.1 0.56 1.09 1.09 82 1006.7
20260509214109 13 163 11.3 29.0 0.48 0.99 0.99 83 1006.7
20260509213125 13 188 9.7 17.7 0.00 0.51 0.51 79 1006.6
20260509212101 15 33 9.7 17.7 0.15 0.51 0.51 78 1006.5
20260509211058 14 22 11.3 20.9 0.28 0.51 0.51 80 1006.5
20260509210054 14 28 9.7 17.7 0.28 0.51 0.51 81 1006.4
20260509205051 13 30 8.0 12.9 0.28 0.51 0.51 88 1006.2
20260509204048 13 43 8.0 14.5 0.28 0.51 0.51 96 1006.0
20260509203105 12 23 9.7 17.7 0.28 0.51 0.51 99 1006.0
20260509202041 12 23 9.7 19.3 0.13 0.36 0.36 99 1005.9
20260509201037 12 28 8.0 12.9 0.00 0.23 0.23 99 1005.9
20260509200034 12 30 6.4 12.9 0.00 0.23 0.23 99 1005.7
20260509195030 12 20 6.4 16.1 0.00 0.23 0.23 99 1005.6
20260509194027 11 234 6.4 14.5 0.00 0.23 0.23 99 1005.6
20260509193023 11 7 8.0 12.9 0.00 0.23 0.23 99 1005.5
20260509192102 11 348 8.0 12.9 0.00 0.23 0.23 99 1005.5
20260509191016 11 318 9.7 17.7 0.00 0.23 0.23 99 1005.3
20260509190113 11 8 8.0 14.5 0.00 0.23 0.23 99 1005.2
20260509185131 11 269 8.0 12.9 0.00 0.23 0.23 99 1005.1
20260509184106 11 290 6.4 12.9 0.00 0.23 0.23 99 1005.2
20260509183103 11 2 6.4 12.9 0.00 0.23 0.23 99 1005.3
20260509182059 11 311 6.4 16.1 0.00 0.23 0.23 99 1005.3
20260509181056 11 353 6.4 14.5 0.00 0.51 0.23 99 1005.2
20260509180052 11 345 6.4 14.5 0.00 0.56 0.23 99 1005.2
20260509175049 11 315 8.0 14.5 0.00 0.56 0.23 99 1005.2
20260509174046 11 17 8.0 12.9 0.00 0.56 0.23 99 1005.0
20260509173042 11 323 8.0 12.9 0.23 0.56 0.23 99 1005.1
20260509172039 11 114 6.4 12.9 0.23 0.56 0.23 97 1005.0
20260509171034 11 356 9.7 19.3 0.23 0.56 0.23 96 1005.0
20260509170031 11 15 8.0 12.9 0.23 0.56 0.23 95 1005.0
20260509165028 11 315 6.4 9.7 0.23 0.66 0.23 95 1005.0
20260509164025 11 45 12.9 19.3 0.23 0.66 0.23 94 1004.9
20260509163042 11 45 6.4 12.9 0.00 0.43 0.00 94 1004.9
20260509162018 11 281 4.8 11.3 0.00 0.43 0.00 94 1005.1
20260509161135 11 241 3.2 6.4 0.00 0.43 0.00 94 1005.1
20260509160111 11 273 3.2 6.4 0.00 0.43 0.00 94 1005.1
20260509155106 11 338 4.8 9.7 0.00 0.43 0.00 95 1005.3
20260509154103 11 272 4.8 8.0 0.00 0.79 0.00 95 1005.4
20260509153059 11 266 3.2 8.0 0.00 0.94 0.00 95 1005.4
20260509152056 11 217 4.8 8.0 0.00 1.17 0.00 96 1005.5
20260509151052 11 231 6.4 12.9 0.00 1.17 0.00 96 1005.5
20260509150049 11 35 4.8 6.4 0.00 1.17 0.00 97 1005.6
20260509145046 11 260 4.8 9.7 0.00 1.19 0.00 97 1005.7
20260509144042 11 299 3.2 11.3 0.00 1.50 0.00 97 1005.7
20260509143039 11 241 3.2 6.4 0.00 1.50 0.00 97 1005.7
20260509142037 11 258 4.8 9.7 0.00 1.50 0.00 98 1005.8
20260509141032 11 301 3.2 6.4 0.00 1.50 0.00 98 1005.7
20260509140049 11 185 3.2 6.4 0.00 1.50 0.00 99 1005.7
20260509135025 11 338 3.2 6.4 0.00 1.96 0.00 99 1005.7
20260509134023 11 34 4.8 11.3 0.00 1.96 0.00 99 1005.9
20260509133018 11 101 4.8 8.0 0.00 1.96 0.00 99 1006.0
20260509132115 11 257 3.2 6.4 0.00 1.98 0.00 99 1006.1
20260509131152 11 262 3.2 4.8 0.00 2.29 0.00 99 1006.1
20260509130109 11 350 3.2 6.4 0.00 2.51 0.00 99 1006.4
20260509125105 11 54 4.8 8.0 0.00 2.51 0.00 99 1006.3
20260509124143 11 18 4.8 8.0 0.00 2.51 0.00 99 1006.4
20260509123117 11 328 4.8 6.4 0.00 2.51 0.00 99 1006.4
20260509122135 11 168 6.4 17.7 0.00 2.51 0.00 99 1006.5
20260509121109 11 303 3.2 6.4 0.00 2.51 0.00 99 1006.6
20260509120045 11 281 3.2 6.4 0.00 2.51 0.00 99 1006.5
20260509115042 11 346 4.8 8.0 0.00 3.17 3.15 99 1006.5
20260509114100 12 344 3.2 6.4 0.00 3.84 3.15 99 1006.5
20260509113035 12 1 6.4 14.5 0.00 4.01 3.15 99 1006.6
20260509112052 12 270 3.2 4.8 0.00 4.01 3.15 99 1006.7
20260509111028 12 2 4.8 9.7 0.00 4.01 3.15 99 1006.6
20260509110045 12 12 6.4 11.3 0.00 4.01 3.15 99 1006.9
20260509105023 12 330 4.8 11.3 0.00 4.01 3.15 99 1006.9
20260509104018 12 4 3.2 6.4 0.00 4.27 3.15 99 1006.7
20260509103116 12 345 4.8 6.4 0.00 4.27 3.15 99 1006.8
20260509102111 12 33 4.8 12.9 0.00 4.27 3.15 99 1006.7
20260509101107 12 351 4.8 12.9 0.00 4.42 3.15 99 1006.7
20260509100124 12 106 4.8 8.0 0.00 4.42 3.15 99 1006.6
20260509095101 12 31 6.4 9.7 0.00 4.42 3.15 99 1006.7
20260509094056 12 37 4.8 6.4 0.00 4.42 3.15 98 1006.6
20260509093115 12 38 6.4 9.7 0.00 5.74 3.15 98 1006.6
20260509092051 13 17 3.2 6.4 0.00 5.74 3.15 98 1006.6
20260509091046 13 164 3.2 6.4 0.00 5.74 3.15 98 1006.6
20260509090045 13 11 1.6 6.4 0.00 5.74 3.15 98 1006.6
20260509085039 13 244 4.8 8.0 0.00 5.87 3.15 98 1006.6
20260509084036 13 16 3.2 8.0 0.00 5.87 3.15 97 1006.4
20260509083032 13 256 3.2 6.4 0.00 6.20 3.15 97 1006.5
20260509082029 13 320 4.8 8.0 0.00 6.20 3.15 97 1006.5
20260509081026 12 292 3.2 4.8 0.00 6.20 3.15 97 1006.5
20260509080022 12 249 6.4 8.0 0.00 6.20 3.15 97 1006.6
20260509075018 13 226 6.4 17.7 0.00 6.20 3.15 98 1006.7
20260509074115 13 260 6.4 12.9 0.00 6.20 3.15 98 1006.6
20260509073112 13 303 4.8 9.7 0.00 6.20 3.15 98 1006.5
20260509072108 13 245 4.8 9.7 0.00 6.20 3.15 98 1006.4
20260509071105 13 249 4.8 9.7 0.00 6.20 3.15 98 1006.3
20260509070144 13 225 3.2 6.4 0.00 6.20 3.15 98 1006.3
20260509065057 13 225 3.2 6.4 0.00 6.20 3.15 98 1006.2
20260509064054 13 234 1.6 3.2 0.00 6.20 3.15 97 1006.2
20260509063051 13 249 1.6 3.2 0.00 6.20 3.15 97 1006.4
20260509062108 13 235 3.2 4.8 0.00 6.20 3.15 97 1006.3
20260509061044 13 256 3.2 8.0 0.00 6.20 3.15 96 1006.2
20260509060041 13 234 4.8 9.7 0.00 6.20 3.15 95 1006.3
20260509055037 13 304 4.8 8.0 0.00 6.20 3.15 95 1006.1
20260509054034 13 19 3.2 4.8 0.00 6.20 3.15 95 1006.0
20260509053030 13 225 3.2 6.4 0.00 6.20 3.15 95 1006.2
20260509052027 13 266 6.4 11.3 0.00 6.20 3.15 95 1006.4
20260509051023 13 350 6.4 9.7 0.00 6.20 3.15 95 1006.5
20260509050020 13 267 6.4 17.7 0.00 6.20 3.15 94 1006.6
20260509045135 13 299 6.4 17.7 0.00 6.20 3.15 93 1006.7
20260509044112 13 290 6.4 12.9 0.00 6.20 3.15 92 1006.8
20260509043109 13 237 6.4 11.3 0.00 6.20 3.15 91 1007.0
20260509042104 13 241 4.8 11.3 0.00 6.20 3.15 90 1006.9
20260509041100 13 244 6.4 9.7 0.00 6.20 3.15 88 1007.0
20260509040057 14 357 3.2 8.0 0.00 6.20 3.15 88 1006.8
20260509035055 14 264 4.8 9.7 0.00 6.20 3.15 88 1006.8
20260509034110 14 314 4.8 6.4 0.00 6.20 3.15 86 1006.7
20260509033047 14 296 3.2 8.0 0.00 6.20 3.15 83 1006.7
20260509032043 15 244 4.8 9.7 0.00 6.20 3.15 80 1006.8
20260509031119 16 185 4.8 14.5 0.00 6.20 3.15 77 1006.7
20260509030035 16 57 6.4 12.9 0.00 6.20 3.15 74 1006.7
20260509025031 17 240 8.0 12.9 0.00 6.20 3.15 69 1006.9
20260509024028 18 342 6.4 11.3 0.00 6.20 3.15 69 1006.9
20260509023025 18 3 9.7 17.7 0.00 6.20 3.15 70 1006.9
20260509022041 17 227 8.0 17.7 0.00 6.20 3.15 73 1007.0
20260509021017 16 215 6.4 9.7 0.00 6.20 3.15 72 1007.0
20260509020114 17 188 6.4 12.9 0.00 6.20 3.15 72 1007.1
20260509015111 17 1 8.0 14.5 0.00 6.20 3.15 70 1007.0
20260509014107 17 310 4.8 11.3 0.00 6.20 3.15 71 1007.0
20260509013103 17 203 9.7 14.5 0.00 6.20 3.15 72 1007.0
20260509012101 17 26 11.3 19.3 0.00 6.20 3.15 67 1006.9
20260509011056 18 231 9.7 20.9 0.00 6.20 3.15 66 1007.0
20260509010053 18 39 8.0 17.7 0.00 6.20 3.15 71 1007.1
20260509005109 16 307 9.7 16.1 0.00 6.20 3.15 75 1007.3
20260509004046 16 310 9.7 25.7 0.00 6.20 3.15 72 1007.4
20260509003042 17 5 12.9 20.9 0.00 6.20 3.15 70 1007.5
20260509002038 17 283 9.7 17.7 0.00 6.20 3.15 72 1007.7
20260509001035 17 270 14.5 20.9 0.00 6.20 3.15 71 1007.9
20260509000031 17 336 12.9 29.0 0.00 6.20 3.15 74 1008.1
20260508235028 16 290 12.9 25.7 0.00 6.20 3.15 75 1008.2